Location: Jaite
(41.2884°N, 81.5737°W)
Time: 19:41:10
(UTC+00:00)

Cosmos 2154 Rocket - Pass Details

Date: 18 January 2020
Orbit: 965 x 997 km, 82.9° (Epoch: 16 February)

Event Time Altitude Azimuth Distance (km) Brightness Sun altitude
Rises 10:34:42 0° 353° (N) 3,668 6.9 -24.8°
Reaches altitude 10° 10:37:14 10° 355° (N) 2,715 6.2 -24.3°
Maximum altitude 10:43:27 77° 82° (E) 993 4.1 -23.2°
Drops below altitude 10° 10:49:37 10° 169° (SSE) 2,696 6.5 -22.0°
Sets 10:52:07 0° 170° (S) 3,641 7.2 -21.6°
